STARLINK-37608, 69037

Orbit data source: Space-Track

STARLINK-37608, 69037 is a payload satellite owned by SpaceX/Seattle (US) in SSO that was launched on Wed, 06 May 2026 UTC via an FALCON 9 launch vehicle from the Air Force Western Test Range (AFWTR). Payload-class satellites include a variety of spacecraft equipped with specific instruments for various scientific and technological missions. These include communications satellites like Starlink; space stations such as the ISS; scientific satellites like the Hubble; Earth observation satellites from companies like Planet Labs, Umbra, and HawkEye 360; GPS; miniature CubeSats for education and research; and military/defense satellites.

Loading next visibility...
Identifier
69037, 2026-101N
Orbit
SSO
Country
Flag of USUS
Related business
Manufacturer
SpaceX/Seattle
Mission
Operational Commercial Communications
Bus & Motor
STARLINK V2MO, Unknown motor
Mass
575 kg wet, ~530 kg dry
Launch date (UTC)
2026-05-06 (3 months ago)
Launch vehicle
FALCON 9
Launch site
Air Force Western Test Range (AFWTR)
Object type
Payload
Rocket body
Debris
Shape & HBR
Box + 2 Pan, 17.7 m
Radar Cross Section
36.964 m², Large (>1 m²)

Expand to show TLE details & history
Last TLE update: 14 hours ago

TLE from 14 hours ago
0 STARLINK-37608
1 69037U 26101N   26206.54475440  .00019248  00000-0  59709-3 0  9991
2 69037  97.2863  60.8857 0001779  84.9845 275.1600 15.33440610 12458
Epoch: 2026-07-25T13:04Z
TLE epoch observation values (Epoch: 2026-07-25T13:04:26.780Z)
Latitude
-0.00008°
Longitude
-78.48138°
Altitude
468.559 km
Speed
7.632 km/s
True Right ascension
04h 03m 32s
True Declination
0° 00' 00"
Sunlit
Object was in daylight at epoch
Visualization orbit readout
Latitude
Unknown
Longitude
Unknown
Altitude
Unknown
Speed
Unknown
Apparent Right ascension
Unknown
Apparent Declination
Unknown
Sunlit
N/A
Visualization observer readout
Local Sidereal Time
16:19:10
Azimuth
Unknown
Elevation
Unknown
Doppler factor
Unknown
Orbital elements
Apogee altitude
463.716 km
Perigee altitude
461.282 km
Semi-major axis
6,840.636 km
Eccentricity
0.00018
Inclination
97.2863°
RAAN
60.8857°
Arg. of periapsis
84.9845°
True anomaly
275.1397°
Mean anomaly
275.16°
Eccentric anomaly
275.14985°
Mean motion
3.83618 °/min
Orbital period
93.84 mins
BSTAR
0.00059709
Loading maneuver chart data...
Computing Atmospheric mass density...
Loading historical data...
Loading historical data...
Loading historical data...
Loading historical data...
Loading historical data...
Loading historical data...
Loading historical data...

Documentation

Showing up to 5 results
|